Showing default

KUIPER-00502, 68883

Orbit data source: Space-Track

KUIPER-00502, 68883 is an American payload satellite in LEO that was launched on Tue, 28 Apr 2026 UTC launched from the Air Force Eastern Test Range (AFETR). Payload-class satellites include a variety of spacecraft equipped with specific instruments for various scientific and technological missions. These include communications satellites like Starlink; space stations such as the ISS; scientific satellites like the Hubble; Earth observation satellites from companies like Planet Labs, Umbra, and HawkEye 360; GPS; miniature CubeSats for education and research; and military/defense satellites.

Loading next visibility...
Identifier
68883, 2026-095V
Orbit
LEO
Country
Flag of USUS
Related business
None
Manufacturer
Unknown
Mission
Operational spacecraft
Bus & Motor
Unknown
Mass
Unknown
Launch date (UTC)
2026-04-28 (4 days ago)
Launch vehicle
Unknown
Launch site
Air Force Eastern Test Range (AFETR)
Object type
Payload
Rocket body
Debris
Shape & HBR
Unknown
Radar Cross Section
RCS unknown

Expand to show TLE details & history
Last TLE update: 7 hours ago

TLE from 7 hours ago
0 KUIPER-00502
1 68883U 26095V   26122.16670139  .00000503  00000-0  24190-4 0  9999
2 68883  51.8788 104.9112 0006125 116.2925  86.0226 15.37241579  1368
Epoch: 2026-05-02T04:00Z
TLE epoch observation values (Epoch: 2026-05-02T04:00:03.000Z)
Latitude
-17.60379°
Longitude
19.14563°
Altitude
458.646 km
Speed
7.638 km/s
True Right ascension
19h 56m 59s
True Declination
-17° 30' 02"
Sunlit
Object was in daylight at epoch
Visualization orbit readout
Latitude
Unknown
Longitude
Unknown
Altitude
Unknown
Speed
Unknown
Apparent Right ascension
Unknown
Apparent Declination
Unknown
Sunlit
N/A
Visualization observer readout
Local Sidereal Time
18:37:13
Azimuth
Unknown
Elevation
Unknown
Doppler factor
Unknown
Orbital elements
Apogee altitude
458.922 km
Perigee altitude
450.551 km
Semi-major axis
6,832.873 km
Eccentricity
0.00061
Inclination
51.8788°
RAAN
104.9112°
Arg. of periapsis
116.2925°
True anomaly
86.09262°
Mean anomaly
86.0226°
Eccentric anomaly
86.05761°
Mean motion
3.84271 °/min
Orbital period
93.68 mins
BSTAR
0.00002419
Loading maneuver chart data...
Computing Atmospheric mass density...
Loading historical data...
Loading historical data...
Loading historical data...
Loading historical data...
Loading historical data...
Loading historical data...
Loading historical data...

Documentation

Showing up to 5 results
|